Hourly Data Report for October 06, 2017

All times are specified in Local Standard Time (LST). Add 1 hour to adjust for Daylight Saving Time where and when it is observed.

EUREKA CLIMATE
NUNAVUT

79°59'21.000" N
85°56'02.000" W
10.00 m
2401199
71613
NEK

Download Data

Hourly Data (October 2017)
Hourly Data Report for October 6, 2017
Temp Definition
°C
Dew Point Temp Definition
°C
Rel Hum Definition
%
Wind Dir Definition
10's deg

Wind Spd Definition
km/h
Visibility Definition
km
Stn Press Definition
kPa
Hmdx Definition


Wind Chill Definition


Weather Definition


TIME
00:00 -21.5 -23.4 84 11 6   101.61   -27 LegendNANA
01:00 -19.8 -21.5 86 6 4   101.59   -23 LegendNANA
02:00 -21.5 -23.5 84 33 9   101.56   -29 LegendNANA
03:00 -20.8 -22.5 86 32 4   101.53   -24 LegendNANA
04:00 -20.9 -22.6 87 31 4   101.49   -24 LegendNANA
05:00 -20.8 -22.6 86 30 4   101.44   -24 LegendNANA
06:00 -21.5 -23.2 86 4 3   101.41   -24 LegendNANA
07:00 -22.5 -24.7 82 10 4   101.38   -26 LegendNANA
08:00 -21.4 -23.2 86 10 6   101.32   -27 LegendNANA
09:00 -22.1 -24.6 80 11 7   101.28   -28 LegendNANA
10:00 -22.2 -24.4 83 12 12   101.22   -31 LegendNANA
11:00 -21.5 -24.3 78 13 5   101.16   -26 LegendNANA
12:00 -21.3 -24.0 79 11 7   101.11   -27 LegendNANA
13:00 -21.3 -24.0 79 12 8   101.07   -28 LegendNANA
14:00 -21.1 -23.5 81 11 7   101.06   -27 LegendNANA
15:00 -21.5 -23.1 86 2 8   101.03   -28 LegendNANA
16:00 -22.6 -24.5 85 11 8   101.03   -29 LegendNANA
17:00 -21.9 -23.7 85 12 2   101.02   -24 LegendNANA
18:00 -22.2 -24.0 85 14 3   101.01   -25 LegendNANA
19:00 -23.0 -24.8 85 13 4   101.03   -27 LegendNANA
20:00 -22.5 -24.3 85 12 4   101.00   -26 LegendNANA
21:00 -21.0 -22.7 86 35 7   100.97   -27 LegendNANA
22:00 -22.3 -24.1 85 10 9   100.95   -29 LegendNANA
23:00 -21.6 -23.2 86 10 8   100.93   -28 LegendNANA

Notes on Data Quality.

Legend

  • E = Estimated
  • M = Missing
  • NA = Not Available
  • ‡ = Partner data that is not subject to review by the National Climate Archives
Date modified: